Weather in Tobyl

Kazakhstan     53°12′02″N   63°41′31″E
temp.,
°C
wind,
m/s
gust,
m/s
humid.,
%
clouds,
%
prec.,
mm/h
press.,
hPa
HPBL,
m
8 may, sat
sat823:00+13sse113613 0.0 102011
02:00+12e22396 0.0 101913
05:00+10e3344100 0.0 101923
08:00+15e3437100 0.0 1018217
11:00+19ene3428100 0.0 10171376
14:00+21e342399 0.0 10152245
17:00+22ne232394 0.0 10142806
20:00+18n4736100 0.0 1013146
9 may, sun
sun923:00+15nne3642100 0.0 1013128
02:00+14ese4851100 0.0 1013214
05:00+13nnw3568100 1.3 1013148
08:00+13nw61162100 0.8 1012262
11:00+17nne5849100 0.8 1012762
14:00+19ne101241100 0.0 10122066
17:00+15nne101167100 0.0 1013983
20:00+13nne91574100 0.1 1014794
10 may, mon
mon1023:00+13nne91668100 0.1 10141026
02:00+14nne8136085 0.0 1014836
05:00+14nne81358100 0.0 1016719
08:00+14nne6116185 0.0 1018700
11:00+18ne71143100 0.0 10191688
14:00+18ne6843100 0.0 10201783
17:00+18ne6739100 0.0 10201739
20:00+15nne48525 0.0 1022162
11 may, tue
tue1123:00+12ne48535 0.0 1023135
02:00+10ene33510 0.0 102432
05:00+8e33530 0.0 102526
08:00+13ene22435 0.0 1027276
11:00+17ene2230100 0.0 10271404
14:00+20n1125100 0.0 10261629
17:00+20n1224100 0.0 10261648
20:00+17ese2235100 0.0 102619
12 may, wed
wed1223:00+14se11375 0.0 102611
02:00+13sw223890 0.0 102610
05:00+12nw33415 0.0 102721
08:00+15nne68666 0.0 1027473
11:00+17nne7739100 0.0 10271138
14:00+19n67345 0.0 10271668
17:00+19nne783497 0.0 10271982
20:00+15ne364876 0.0 1027106